Карточка аэропорта UACK

Внимание!
Информация на этой странице в стадии наполнения.
Если вы не увидели какой-то информации, или заметили неточность - пожалуйста сообщите нам!
Спасибо!
Команда RU-STAFF
Название аэропортаКокшетау
Название аэропорта (англ.)Kokshetau
Превышение889 ft. (271 m.)
Координаты53°19.8', 69°35.802'
Высота перехода10000ft
Эшелон переходаFL120, QNH<733:FL130
Коды ответчика7264-7267
Зона ОрВДАстана РПИ (UACN)
Данные METARUACK 181800Z 29002MPS CAVOK 16/15 Q1003 NOSIG RMK QFE728/0971
Проноз погоды (TAF)UACK 181406Z 1815/1824 32006MPS 9999 BKN033 TEMPO 1815/1821 34004G09MPS 3100 -SHRA BR BKN009 BKN030CB
NOTAMshow/hide NOTAM
AWOS   TABLE

Информация о ВПП

ВПП Длина ВПП (м.) Покрытие Курс ВПП Частота ILS
202850Асфальтобетон201109.5
022850Асфальтобетон21110.3

Диспетчерские позиции




Спутниковое изображение